UAL52 KLAX-LOWW

Flight info

Callsign UAL52
Flight time N/A
Altitude 36000
Route LADYJ4 CSTRO DCT CANDA/N0494F350 DCT TWF DCT KU84M DCT KU09O DCT KU21Q DCT TAGOT/N0483F370 Q838 YPA J539 POLLE DCT 57N100W 6130N09000W 64N080W 65N070W/M084F370 DCT EPMAN DCT 67N050W 6730N04000W/M084F390 67N030W 66N020W 64N010W DCT GUNPA/N0472F390 DCT MITSI DCT DOSUR DCT BUMIL DCT MILGU DCT OMELO DCT EVIKU DCT BITSI DCT MIKOV MIKOV8W
Aircraft B789/H-SDE1E2E3FGHIJ2J3J4J5M1RWXY/LB1D1

Departure

Time 2026-04-22 07:17
Airport Los Angeles International Airport (KLAX)

Arrival

Time N/A
Airport Vienna International Airport (LOWW)
Time Latitude Longitude Altitude Speed Heading
2026-04-22 06:39 33.94102 -118.39887 101 ft 0 kts 307°
2026-04-22 07:10 33.94100 -118.39884 89 ft 3 kts 307°
2026-04-22 07:10 33.94083 -118.39861 98 ft 4 kts 304°
2026-04-22 07:10 33.94073 -118.39832 98 ft 4 kts 289°
2026-04-22 07:10 33.94067 -118.39812 97 ft 0 kts 290°
2026-04-22 07:12 33.94066 -118.39819 97 ft 1 kts 259°
2026-04-22 07:12 33.94059 -118.39826 98 ft 1 kts 211°
2026-04-22 07:13 33.94040 -118.39826 98 ft 7 kts 182°
2026-04-22 07:13 33.93990 -118.39776 100 ft 14 kts 102°
2026-04-22 07:13 33.94000 -118.39609 101 ft 25 kts 83°
2026-04-22 07:13 33.94022 -118.39403 98 ft 24 kts 82°
2026-04-22 07:14 33.94042 -118.39202 99 ft 24 kts 83°
2026-04-22 07:14 33.94056 -118.38987 98 ft 27 kts 86°
2026-04-22 07:14 33.94079 -118.38756 99 ft 27 kts 83°
2026-04-22 07:14 33.94101 -118.38535 99 ft 26 kts 82°
2026-04-22 07:15 33.94093 -118.38361 101 ft 12 kts 139°
2026-04-22 07:15 33.94035 -118.38331 102 ft 7 kts 171°
2026-04-22 07:15 33.93985 -118.38328 105 ft 5 kts 191°
2026-04-22 07:15 33.93952 -118.38362 105 ft 10 kts 242°
2026-04-22 07:16 33.93945 -118.38399 106 ft 0 kts 263°
2026-04-22 07:16 33.93942 -118.38432 107 ft 21 kts 263°
2026-04-22 07:17 33.93895 -118.38891 102 ft 89 kts 263°
2026-04-22 07:17 33.93793 -118.39876 105 ft 146 kts 263°
2026-04-22 07:17 33.93640 -118.41245 319 ft 172 kts 261°
2026-04-22 07:17 33.93467 -118.42694 794 ft 179 kts 263°
2026-04-22 07:18 33.93334 -118.44235 965 ft 195 kts 264°
2026-04-22 07:18 33.93178 -118.45912 1070 ft 207 kts 264°
2026-04-22 07:18 33.93029 -118.47629 1435 ft 206 kts 265°
2026-04-22 07:18 33.92889 -118.49364 1768 ft 209 kts 265°
2026-04-22 07:19 33.92742 -118.51184 1829 ft 231 kts 265°
2026-04-22 07:19 33.92577 -118.53202 1938 ft 247 kts 265°
2026-04-22 07:19 33.92406 -118.55242 2516 ft 244 kts 265°
2026-04-22 07:19 33.92236 -118.57288 2981 ft 247 kts 265°
2026-04-22 07:20 33.92065 -118.59348 3449 ft 248 kts 264°
2026-04-22 07:20 33.92153 -118.61420 3808 ft 251 kts 288°
2026-04-22 07:20 33.92979 -118.63273 4214 ft 256 kts 313°
2026-04-22 07:20 33.94397 -118.64536 4946 ft 259 kts 327°
2026-04-22 07:21 33.95983 -118.65612 5812 ft 263 kts 329°
2026-04-22 07:21 33.97610 -118.66644 6683 ft 266 kts 329°
2026-04-22 07:21 33.99310 -118.67541 7509 ft 272 kts 347°
2026-04-22 07:21 34.01245 -118.67644 8118 ft 287 kts 356°
2026-04-22 07:22 34.03278 -118.67533 8174 ft 293 kts 360°
2026-04-22 07:22 34.05288 -118.67345 8168 ft 287 kts 359°
2026-04-22 07:22 34.07281 -118.67202 8166 ft 285 kts 359°
2026-04-22 07:22 34.09234 -118.66780 8351 ft 292 kts
2026-04-22 07:23 34.11206 -118.66327 9268 ft 289 kts
2026-04-22 07:23 34.13221 -118.65912 9998 ft 297 kts
2026-04-22 07:23 34.15289 -118.65429 10491 ft 313 kts
2026-04-22 07:23 34.17519 -118.64889 10641 ft 341 kts
2026-04-22 07:24 34.19915 -118.64314 11058 ft 354 kts
2026-04-22 07:24 34.22349 -118.63732 11859 ft 358 kts
2026-04-22 07:24 34.24811 -118.63436 12536 ft 352 kts 348°
2026-04-22 07:24 34.27207 -118.63857 13250 ft 352 kts 343°
2026-04-22 07:25 34.29627 -118.64410 13981 ft 356 kts 341°
2026-04-22 07:25 34.32069 -118.65011 14631 ft 360 kts 341°
2026-04-22 07:25 34.34548 -118.65581 15260 ft 365 kts 342°
2026-04-22 07:25 34.37061 -118.66135 15947 ft 366 kts 342°
2026-04-22 07:26 34.39582 -118.66706 16597 ft 369 kts 341°
2026-04-22 07:26 34.42124 -118.67295 17210 ft 374 kts 341°
2026-04-22 07:26 34.44721 -118.67794 17809 ft 380 kts 343°
2026-04-22 07:26 34.47311 -118.68304 18431 ft 383 kts 342°
2026-04-22 07:27 34.49946 -118.68845 18989 ft 386 kts 342°
2026-04-22 07:27 34.52607 -118.69365 19563 ft 388 kts 342°
2026-04-22 07:27 34.55283 -118.69875 20133 ft 390 kts 342°
2026-04-22 07:27 34.57970 -118.70398 20713 ft 391 kts 342°
2026-04-22 07:28 34.63381 -118.71463 21899 ft 395 kts 341°
2026-04-22 07:28 34.66106 -118.71996 22407 ft 398 kts 341°
2026-04-22 07:28 34.68849 -118.72532 22924 ft 399 kts 341°
2026-04-22 07:29 34.71520 -118.73295 23438 ft 389 kts 331°
2026-04-22 07:29 34.73994 -118.74554 23872 ft 381 kts 322°
2026-04-22 07:29 34.76302 -118.76124 24301 ft 381 kts 322°
2026-04-22 07:29 34.78617 -118.77704 24728 ft 382 kts 321°
2026-04-22 07:30 34.80904 -118.79272 25135 ft 382 kts 321°
2026-04-22 07:30 34.83224 -118.80868 25539 ft 384 kts 321°
2026-04-22 07:30 34.85558 -118.82473 25916 ft 385 kts 321°
2026-04-22 07:30 34.87899 -118.84081 26319 ft 386 kts 321°
2026-04-22 07:31 34.90245 -118.85694 26727 ft 387 kts 321°
2026-04-22 07:31 34.92601 -118.87316 27057 ft 389 kts 321°
2026-04-22 07:31 34.94965 -118.88945 27449 ft 390 kts 321°
2026-04-22 07:31 34.97334 -118.90577 27823 ft 391 kts 321°
2026-04-22 07:32 34.99710 -118.92217 28192 ft 393 kts 321°
2026-04-22 07:32 35.02069 -118.93845 28521 ft 394 kts 321°
2026-04-22 07:32 35.04462 -118.95498 28870 ft 396 kts 321°
2026-04-22 07:32 35.06856 -118.97151 29299 ft 395 kts 321°
2026-04-22 07:33 35.09254 -118.98809 29640 ft 396 kts 321°
2026-04-22 07:33 35.11659 -119.00476 29951 ft 397 kts 321°
2026-04-22 07:33 35.14065 -119.02143 30259 ft 399 kts 321°
2026-04-22 07:33 35.16484 -119.03818 30514 ft 400 kts 321°
2026-04-22 07:34 35.18911 -119.05501 30740 ft 402 kts 321°
2026-04-22 07:34 35.21348 -119.07193 31052 ft 403 kts 321°
2026-04-22 07:34 35.23788 -119.08887 31294 ft 404 kts 321°
2026-04-22 07:34 35.26240 -119.10592 31517 ft 405 kts 321°
2026-04-22 07:35 35.28699 -119.12302 31733 ft 407 kts 321°
2026-04-22 07:35 35.31137 -119.13998 31945 ft 408 kts 321°
2026-04-22 07:35 35.33608 -119.15720 32153 ft 410 kts 321°
2026-04-22 07:35 35.36087 -119.17448 32354 ft 411 kts 321°
2026-04-22 07:36 35.38599 -119.19163 32600 ft 416 kts 324°
2026-04-22 07:36 35.41298 -119.20555 32818 ft 427 kts 330°
2026-04-22 07:36 35.44203 -119.21540 32996 ft 439 kts 338°
2026-04-22 07:36 35.47281 -119.22060 33176 ft 453 kts 345°
2026-04-22 07:37 35.50483 -119.22058 33349 ft 468 kts 353°
2026-04-22 07:37 35.53758 -119.21495 33505 ft 481 kts 359°
2026-04-22 07:37 35.57059 -119.20747 33654 ft 482 kts 358°
2026-04-22 07:37 35.60359 -119.19996 33893 ft 484 kts 358°
2026-04-22 07:38 35.63686 -119.19237 34030 ft 486 kts 358°
2026-04-22 07:38 35.66975 -119.18487 34190 ft 487 kts 358°
2026-04-22 07:38 35.70306 -119.17728 34315 ft 488 kts 358°
2026-04-22 07:38 35.73658 -119.16964 34431 ft 490 kts 358°
2026-04-22 07:39 35.77028 -119.16193 34581 ft 491 kts 359°
2026-04-22 07:39 35.80392 -119.15422 34729 ft 491 kts 359°
2026-04-22 07:39 35.83767 -119.14650 34916 ft 492 kts 359°
2026-04-22 07:39 35.87147 -119.13877 35031 ft 494 kts 359°
2026-04-22 07:40 35.90487 -119.13111 35177 ft 495 kts 359°
2026-04-22 07:40 35.93871 -119.12333 35342 ft 495 kts 359°
2026-04-22 07:40 35.97264 -119.11554 35487 ft 496 kts 359°
2026-04-22 07:40 36.00658 -119.10775 35639 ft 496 kts 359°
2026-04-22 07:41 36.04059 -119.09993 35779 ft 497 kts 359°
2026-04-22 07:41 36.07461 -119.09209 35969 ft 498 kts 359°
2026-04-22 07:41 36.14317 -119.07629 36151 ft 501 kts 360°
2026-04-22 07:42 36.21166 -119.06048 36174 ft 505 kts 360°
2026-04-22 07:42 36.28055 -119.04448 36169 ft 502 kts 360°
2026-04-22 07:43 36.34933 -119.02860 36180 ft 503 kts
2026-04-22 07:43 36.41821 -119.01256 36178 ft 503 kts
2026-04-22 07:44 36.48697 -118.99659 36181 ft 503 kts
2026-04-22 07:44 36.55565 -118.98058 36184 ft 503 kts
2026-04-22 07:45 36.62452 -118.96450 36184 ft 504 kts
2026-04-22 07:45 36.69360 -118.94834 36181 ft 507 kts
2026-04-22 07:46 36.76277 -118.93215 36213 ft 510 kts
2026-04-22 07:46 36.83257 -118.91572 36184 ft 509 kts
2026-04-22 07:47 36.90238 -118.89934 36181 ft 510 kts
2026-04-22 07:47 36.97209 -118.88289 36160 ft 509 kts
2026-04-22 07:48 37.04119 -118.86658 36154 ft 509 kts
2026-04-22 07:48 37.11085 -118.85010 36152 ft 508 kts
2026-04-22 07:49 37.18036 -118.83364 36149 ft 508 kts
2026-04-22 07:49 37.24976 -118.81716 36136 ft 508 kts
2026-04-22 07:50 37.31935 -118.80061 36123 ft 509 kts
2026-04-22 07:50 37.38858 -118.77927 36113 ft 522 kts 15°
2026-04-22 07:51 37.45279 -118.73509 36098 ft 534 kts 25°
2026-04-22 07:51 37.50563 -118.69406 36095 ft 530 kts 25°
2026-04-22 07:52 37.56837 -118.64540 36083 ft 528 kts 25°
2026-04-22 07:52 37.63105 -118.59667 36075 ft 530 kts 26°
2026-04-22 07:53 37.69365 -118.54787 36070 ft 532 kts 26°
2026-04-22 07:53 37.75678 -118.49860 36032 ft 535 kts 26°
2026-04-22 07:54 37.81868 -118.45015 36018 ft 535 kts 26°
2026-04-22 07:54 37.88210 -118.40043 35998 ft 535 kts 26°
2026-04-22 07:55 37.94534 -118.35076 35982 ft 535 kts 26°
2026-04-22 07:55 38.00833 -118.30119 35973 ft 539 kts 27°
2026-04-22 07:56 38.07216 -118.25082 35973 ft 540 kts 27°
2026-04-22 07:56 38.13605 -118.20032 35971 ft 540 kts 27°
2026-04-22 07:57 38.19976 -118.14985 35963 ft 539 kts 27°
2026-04-22 07:57 38.26354 -118.09924 35959 ft 540 kts 27°
2026-04-22 07:58 38.32729 -118.04853 35955 ft 540 kts 27°
2026-04-22 07:58 38.39112 -117.99766 35959 ft 542 kts 27°
2026-04-22 07:59 38.45269 -117.94847 35975 ft 542 kts 27°
2026-04-22 07:59 38.51656 -117.89734 35969 ft 540 kts 28°
2026-04-22 08:00 38.57998 -117.84647 35971 ft 535 kts 28°
2026-04-22 08:00 38.64312 -117.79573 35971 ft 535 kts 28°
2026-04-22 08:01 38.70617 -117.74494 35977 ft 536 kts 28°
2026-04-22 08:01 38.76943 -117.69388 36003 ft 537 kts 28°
2026-04-22 08:02 38.83061 -117.64439 35997 ft 537 kts 28°
2026-04-22 08:02 38.89403 -117.59298 35994 ft 538 kts 28°
2026-04-22 08:03 38.95737 -117.54153 35993 ft 537 kts 28°
2026-04-22 08:03 39.01965 -117.49083 36020 ft 537 kts 28°
2026-04-22 08:04 39.08330 -117.43891 35962 ft 536 kts 29°
2026-04-22 08:04 39.14634 -117.38737 35961 ft 536 kts 29°
2026-04-22 08:05 39.20928 -117.33580 35940 ft 536 kts 29°
2026-04-22 08:05 39.27182 -117.28445 35970 ft 536 kts 29°
2026-04-22 08:06 39.33465 -117.23275 35931 ft 534 kts 30°
2026-04-22 08:06 39.39724 -117.18113 35931 ft 534 kts 30°
2026-04-22 08:07 39.46013 -117.12918 35925 ft 536 kts 30°
2026-04-22 08:07 39.52315 -117.07697 35924 ft 538 kts 30°
2026-04-22 08:08 39.58584 -117.02494 35929 ft 538 kts 30°
2026-04-22 08:08 39.64900 -116.97240 35926 ft 537 kts 30°
2026-04-22 08:09 39.71190 -116.91996 35924 ft 537 kts 30°
2026-04-22 08:09 39.77434 -116.86779 35922 ft 536 kts 30°
2026-04-22 08:10 39.83727 -116.81510 35925 ft 538 kts 31°
2026-04-22 08:10 39.90015 -116.76233 35923 ft 538 kts 31°
2026-04-22 08:11 39.96321 -116.70930 35913 ft 539 kts 31°
2026-04-22 08:11 40.02629 -116.65612 35909 ft 539 kts 31°
2026-04-22 08:12 40.08917 -116.60300 35900 ft 537 kts 31°
2026-04-22 08:12 40.15184 -116.54994 35893 ft 535 kts 32°
2026-04-22 08:13 40.21466 -116.49664 35878 ft 539 kts 32°
2026-04-22 08:13 40.27715 -116.44348 35884 ft 539 kts 32°
2026-04-22 08:14 40.33992 -116.38998 35886 ft 535 kts 32°
2026-04-22 08:14 40.40240 -116.33660 35885 ft 535 kts 32°
2026-04-22 08:15 40.46481 -116.28316 35885 ft 536 kts 32°
2026-04-22 08:15 40.52742 -116.22943 35888 ft 538 kts 32°
2026-04-22 08:16 40.58994 -116.17566 35888 ft 538 kts 33°
2026-04-22 08:16 40.65257 -116.12166 35894 ft 537 kts 33°
2026-04-22 08:17 40.71448 -116.06817 35899 ft 536 kts 33°
2026-04-22 08:17 40.77744 -116.01364 35897 ft 537 kts 33°
2026-04-22 08:18 40.83987 -115.95946 35950 ft 536 kts 33°
2026-04-22 08:18 40.90213 -115.90529 35935 ft 537 kts 33°
2026-04-22 08:19 40.96464 -115.85078 35934 ft 539 kts 33°
2026-04-22 08:19 41.02688 -115.79639 35934 ft 539 kts 33°
2026-04-22 08:20 41.08935 -115.74166 35911 ft 535 kts 34°
2026-04-22 08:20 41.15169 -115.68692 35889 ft 533 kts 34°
2026-04-22 08:21 41.21369 -115.63236 35867 ft 534 kts 34°
2026-04-22 08:21 41.27454 -115.57867 35894 ft 537 kts 34°
2026-04-22 08:22 41.33773 -115.52282 35891 ft 537 kts 35°
2026-04-22 08:22 41.39990 -115.46772 35882 ft 535 kts 35°
2026-04-22 08:23 41.46197 -115.41258 35866 ft 535 kts 35°
2026-04-22 08:23 41.52392 -115.35742 35862 ft 535 kts 35°
2026-04-22 08:24 41.58578 -115.30222 35857 ft 535 kts 36°
2026-04-22 08:24 41.64760 -115.24689 35849 ft 540 kts 36°
2026-04-22 08:25 41.71021 -115.19078 35841 ft 541 kts 36°
2026-04-22 08:25 41.77282 -115.13449 35835 ft 541 kts 36°
2026-04-22 08:26 41.83527 -115.07824 35810 ft 540 kts 37°
2026-04-22 08:26 41.89755 -115.02198 35801 ft 539 kts 37°
2026-04-22 08:27 41.95986 -114.96558 35788 ft 541 kts 37°
2026-04-22 08:27 42.02219 -114.90901 35779 ft 544 kts 37°
2026-04-22 08:28 42.07938 -114.85701 35776 ft 545 kts 37°
2026-04-22 08:28 42.14217 -114.79975 35780 ft 545 kts 37°
2026-04-22 08:29 42.20443 -114.74286 35779 ft 544 kts 37°
2026-04-22 08:29 42.26711 -114.68543 35786 ft 544 kts 37°
2026-04-22 08:30 42.32940 -114.62823 35808 ft 542 kts 37°
2026-04-22 08:30 42.39173 -114.57085 35826 ft 541 kts 37°
2026-04-22 08:31 42.45389 -114.51371 35833 ft 542 kts 34°
2026-04-22 08:31 42.51142 -114.47967 35876 ft 548 kts 14°
2026-04-22 08:32 42.54863 -114.46764 35840 ft 550 kts 14°
2026-04-22 08:32 42.62318 -114.44450 35839 ft 552 kts 14°
2026-04-22 08:33 42.69846 -114.42054 35844 ft 552 kts 14°
2026-04-22 08:33 42.77277 -114.39712 35811 ft 549 kts 14°
2026-04-22 08:34 42.84731 -114.37342 35746 ft 552 kts 14°
2026-04-22 08:34 42.92215 -114.34964 35750 ft 550 kts 14°
2026-04-22 08:35 42.99645 -114.32593 35739 ft 546 kts 14°
2026-04-22 08:35 43.07022 -114.30235 35738 ft 549 kts 14°
2026-04-22 08:36 43.14500 -114.27839 35723 ft 553 kts 14°
2026-04-22 08:36 43.21997 -114.25430 35745 ft 552 kts 14°
2026-04-22 08:37 43.29490 -114.23017 35764 ft 551 kts 14°
2026-04-22 08:37 43.36941 -114.20610 35795 ft 551 kts 14°
2026-04-22 08:38 43.44373 -114.18204 35808 ft 551 kts 14°
2026-04-22 08:38 43.51866 -114.15773 35810 ft 554 kts 14°
2026-04-22 08:39 43.59363 -114.13334 35785 ft 552 kts 14°
2026-04-22 08:39 43.63097 -114.12116 35646 ft 550 kts 14°
2026-04-22 08:39 43.66822 -114.10900 35637 ft 549 kts 14°
2026-04-22 08:40 43.74260 -114.08468 35588 ft 549 kts 14°
2026-04-22 08:40 43.81639 -114.06048 35610 ft 547 kts 14°
2026-04-22 08:41 43.88976 -114.03637 35607 ft 544 kts 14°
2026-04-22 08:41 43.96426 -114.01181 35601 ft 546 kts 14°
2026-04-22 08:41 44.00053 -113.99706 35622 ft 542 kts 26°
2026-04-22 08:42 44.03381 -113.97441 35623 ft 537 kts 32°
2026-04-22 08:42 44.09896 -113.92458 35589 ft 539 kts 32°
2026-04-22 08:43 44.16535 -113.87387 35588 ft 541 kts 32°
2026-04-22 08:43 44.23102 -113.82355 35571 ft 536 kts 32°
2026-04-22 08:44 44.29631 -113.77336 35509 ft 534 kts 32°
2026-04-22 08:44 44.36138 -113.72324 35558 ft 536 kts 32°
2026-04-22 08:45 44.42692 -113.67261 35561 ft 539 kts 32°
2026-04-22 08:45 44.49226 -113.62203 35544 ft 538 kts 32°
2026-04-22 08:46 44.55743 -113.57143 35547 ft 534 kts 32°
2026-04-22 08:46 44.62262 -113.52068 35549 ft 536 kts 32°
2026-04-22 08:47 44.68806 -113.46961 35558 ft 539 kts 32°
2026-04-22 08:47 44.75330 -113.41858 35557 ft 537 kts 32°
2026-04-22 08:48 44.81837 -113.36753 35544 ft 533 kts 32°
2026-04-22 08:48 44.88327 -113.31647 35543 ft 535 kts 32°
2026-04-22 08:49 44.94771 -113.26567 35544 ft 536 kts 32°
2026-04-22 08:49 45.01304 -113.21403 35556 ft 533 kts 32°
2026-04-22 08:50 45.07760 -113.16285 35562 ft 531 kts 32°
2026-04-22 08:50 45.14211 -113.11157 35560 ft 532 kts 32°
2026-04-22 08:51 45.20689 -113.05995 35571 ft 532 kts 32°
2026-04-22 08:51 45.27104 -113.00870 35601 ft 532 kts 33°
2026-04-22 08:52 45.33536 -112.95718 35600 ft 530 kts 32°
2026-04-22 08:52 45.39970 -112.90550 35610 ft 531 kts 32°
2026-04-22 08:53 45.46406 -112.85368 35605 ft 531 kts 32°
2026-04-22 08:53 45.52831 -112.80181 35600 ft 530 kts 32°
2026-04-22 08:54 45.59234 -112.74997 35585 ft 528 kts 32°
2026-04-22 08:54 45.65558 -112.69864 35578 ft 527 kts 32°
2026-04-22 08:55 45.71638 -112.64916 35585 ft 527 kts 32°
2026-04-22 08:55 45.78020 -112.59708 35603 ft 528 kts 32°
2026-04-22 08:56 45.84410 -112.54481 35582 ft 527 kts 32°
2026-04-22 08:56 45.90744 -112.49286 35737 ft 526 kts 32°
2026-04-22 08:57 45.97109 -112.44051 35740 ft 526 kts 32°
2026-04-22 08:57 46.03475 -112.38801 35735 ft 529 kts 32°
2026-04-22 08:58 46.09871 -112.33513 35700 ft 529 kts 32°
2026-04-22 08:58 46.16257 -112.28219 35664 ft 531 kts 32°
2026-04-22 08:59 46.22614 -112.22934 35631 ft 529 kts 32°
2026-04-22 08:59 46.28996 -112.17614 35597 ft 528 kts 32°
2026-04-22 09:00 46.35363 -112.12292 35602 ft 528 kts 32°
2026-04-22 09:00 46.41737 -112.06950 35635 ft 530 kts 32°
2026-04-22 09:01 46.48115 -112.01590 35644 ft 530 kts 32°
2026-04-22 09:01 46.54321 -111.95851 35632 ft 528 kts 36°
2026-04-22 09:02 46.60487 -111.89982 35624 ft 528 kts 35°
2026-04-22 09:02 46.66559 -111.84130 35619 ft 525 kts 36°
2026-04-22 09:03 46.72652 -111.78272 35604 ft 524 kts 35°
2026-04-22 09:03 46.78736 -111.72393 35592 ft 523 kts 36°
2026-04-22 09:04 46.84809 -111.66513 35561 ft 524 kts 36°
2026-04-22 09:04 46.90882 -111.60616 35544 ft 522 kts 36°
2026-04-22 09:05 46.96881 -111.54774 35532 ft 521 kts 36°
2026-04-22 09:05 47.02925 -111.48874 35541 ft 522 kts 36°
2026-04-22 09:06 47.08965 -111.42960 35516 ft 521 kts 36°
2026-04-22 09:06 47.15006 -111.37028 35525 ft 523 kts 36°
2026-04-22 09:07 47.21028 -111.31100 35545 ft 524 kts 36°
2026-04-22 09:07 47.27079 -111.25125 35559 ft 523 kts 36°
2026-04-22 09:08 47.33129 -111.19135 35571 ft 523 kts 36°
2026-04-22 09:08 47.39181 -111.13126 35568 ft 526 kts 36°
2026-04-22 09:09 47.45256 -111.07078 35565 ft 527 kts 36°
2026-04-22 09:09 47.51331 -111.01012 35555 ft 526 kts 36°
2026-04-22 09:10 47.57360 -110.94976 35544 ft 526 kts 36°
2026-04-22 09:10 47.63416 -110.88893 35532 ft 525 kts 36°
2026-04-22 09:11 47.69465 -110.82803 35526 ft 524 kts 36°
2026-04-22 09:11 47.75457 -110.76752 35526 ft 524 kts 36°
2026-04-22 09:12 47.81498 -110.70633 35527 ft 525 kts 36°
2026-04-22 09:12 47.87539 -110.64497 35527 ft 526 kts 35°
2026-04-22 09:13 47.93581 -110.58343 35530 ft 524 kts 35°
2026-04-22 09:13 47.99548 -110.52247 35524 ft 522 kts 35°
2026-04-22 09:14 48.05554 -110.46095 35529 ft 525 kts 35°
2026-04-22 09:14 48.11587 -110.39896 35528 ft 526 kts 35°
2026-04-22 09:15 48.17614 -110.33686 35544 ft 525 kts 35°
2026-04-22 09:15 48.23621 -110.27478 35538 ft 522 kts 35°
2026-04-22 09:16 48.28595 -110.22325 35546 ft 523 kts 35°
2026-04-22 09:16 48.35567 -110.15079 35540 ft 524 kts 35°
2026-04-22 09:17 48.41556 -110.08836 35547 ft 523 kts 35°
2026-04-22 09:17 48.46528 -110.03639 35553 ft 523 kts 35°
2026-04-22 09:18 48.52662 -109.97803 35586 ft 521 kts 28°
2026-04-22 09:18 48.59062 -109.92617 35591 ft 522 kts 28°
2026-04-22 09:19 48.65000 -109.87728 35580 ft 522 kts 28°
2026-04-22 09:19 48.71347 -109.82520 35586 ft 522 kts 28°
2026-04-22 09:20 48.77737 -109.77250 35586 ft 522 kts 28°
2026-04-22 09:20 48.84125 -109.71970 35594 ft 521 kts 28°
2026-04-22 09:21 48.90495 -109.66689 35601 ft 521 kts 28°
2026-04-22 09:21 48.96858 -109.61396 35615 ft 520 kts 28°
2026-04-22 09:22 49.03238 -109.56077 35615 ft 523 kts 28°
2026-04-22 09:22 49.09596 -109.50759 35624 ft 524 kts 28°
2026-04-22 09:23 49.15983 -109.45401 35632 ft 523 kts 28°
2026-04-22 09:23 49.22366 -109.40029 35617 ft 523 kts 28°
2026-04-22 09:24 49.28694 -109.34689 35642 ft 522 kts 27°
2026-04-22 09:24 49.35050 -109.29310 35645 ft 522 kts 28°
2026-04-22 09:25 49.41407 -109.23913 35657 ft 522 kts 28°
2026-04-22 09:25 49.47786 -109.18482 35656 ft 523 kts 28°
2026-04-22 09:26 49.54154 -109.13043 35652 ft 523 kts 28°
2026-04-22 09:26 49.60479 -109.07625 35640 ft 521 kts 28°
2026-04-22 09:27 49.66809 -109.02187 35652 ft 520 kts 28°
2026-04-22 09:27 49.73140 -108.96731 35654 ft 521 kts 28°
2026-04-22 09:28 49.79486 -108.91245 35669 ft 523 kts 28°
2026-04-22 09:28 49.85847 -108.85731 35673 ft 525 kts 27°
2026-04-22 09:29 49.92178 -108.80225 35680 ft 524 kts 27°
2026-04-22 09:29 49.98535 -108.74679 35678 ft 523 kts 28°
2026-04-22 09:30 50.04872 -108.69135 35677 ft 522 kts 28°
2026-04-22 09:30 50.11211 -108.63572 35673 ft 523 kts 27°
2026-04-22 09:31 50.17535 -108.58005 35680 ft 524 kts 27°
2026-04-22 09:31 50.23895 -108.52390 35680 ft 524 kts 27°
2026-04-22 09:32 50.30242 -108.46767 35683 ft 524 kts 27°
2026-04-22 09:32 50.36597 -108.41120 35684 ft 525 kts 27°
2026-04-22 09:33 50.42962 -108.35448 35695 ft 527 kts 27°
2026-04-22 09:33 50.49301 -108.29780 35704 ft 527 kts 27°
2026-04-22 09:34 50.55665 -108.24071 35706 ft 526 kts 27°
2026-04-22 09:34 50.62023 -108.18352 35737 ft 525 kts 27°
2026-04-22 09:35 50.71570 -108.09729 35704 ft 528 kts 27°
2026-04-22 09:35 50.77961 -108.03932 35710 ft 529 kts 27°
2026-04-22 09:36 50.84330 -107.98139 35708 ft 526 kts 27°
2026-04-22 09:36 50.90640 -107.92381 35738 ft 526 kts 27°
2026-04-22 09:37 50.97004 -107.86556 35733 ft 529 kts 27°
2026-04-22 09:37 51.03388 -107.80691 35743 ft 530 kts 27°
2026-04-22 09:38 51.09510 -107.75050 35742 ft 529 kts 27°
2026-04-22 09:38 51.15864 -107.69178 35750 ft 527 kts 27°
2026-04-22 09:39 51.22208 -107.63296 35744 ft 528 kts 26°
2026-04-22 09:39 51.28571 -107.57378 35760 ft 530 kts 26°
2026-04-22 09:40 51.34909 -107.51462 35760 ft 530 kts 27°
2026-04-22 09:40 51.41269 -107.45507 35768 ft 528 kts 26°
2026-04-22 09:41 51.47611 -107.39550 35777 ft 527 kts 26°
2026-04-22 09:41 51.53945 -107.33583 35768 ft 529 kts 26°
2026-04-22 09:42 51.60298 -107.27575 35773 ft 530 kts 26°
2026-04-22 09:42 51.66632 -107.21567 35783 ft 531 kts 26°
2026-04-22 09:43 51.72994 -107.15511 35775 ft 528 kts 26°
2026-04-22 09:43 51.79305 -107.09486 35779 ft 525 kts 26°
2026-04-22 09:44 51.85593 -107.03464 35792 ft 526 kts 26°
2026-04-22 09:44 51.91874 -106.97425 35774 ft 525 kts 26°
2026-04-22 09:45 51.98175 -106.91351 35797 ft 526 kts 26°
2026-04-22 09:45 52.04427 -106.85300 35819 ft 525 kts 26°
2026-04-22 09:46 52.10695 -106.79218 35784 ft 524 kts 25°
2026-04-22 09:46 52.16947 -106.73129 35780 ft 524 kts 25°